STARLINK-32023, 60197

Orbit data source: Space-Track

STARLINK-32023, 60197 is a payload satellite owned by SpaceX/Seattle (US) in LEO that was launched on Wed, 03 Jul 2024 UTC via an FALCON 9 launch vehicle from the Air Force Eastern Test Range (AFETR). Payload-class satellites include a variety of spacecraft equipped with specific instruments for various scientific and technological missions. These include communications satellites like Starlink; space stations such as the ISS; scientific satellites like the Hubble; Earth observation satellites from companies like Planet Labs, Umbra, and HawkEye 360; GPS; miniature CubeSats for education and research; and military/defense satellites.

Loading next visibility...
Identifier
60197, 2024-124Q
Orbit
LEO
Country
Flag of USUS
Related business
Manufacturer
SpaceX/Seattle
Mission
Operational Commercial Communications
Bus & Motor
STARLINK V2M, Unknown motor
Mass
730 kg wet, ~700 kg dry
Launch date (UTC)
2024-07-03 (1 year ago)
Launch vehicle
FALCON 9
Launch site
Air Force Eastern Test Range (AFETR)
Object type
Payload
Rocket body
Debris
Shape & HBR
Box + 2 Pan, 17.7 m
Radar Cross Section
33.884 m², Large (>1 m²)

Expand to show TLE details & history
Last TLE update: 13 hours ago

TLE from 13 hours ago
0 STARLINK-32023
1 60197U 24124Q   25340.56426168  .00001793  00000-0  72648-4 0  9999
2 60197  53.1615  35.3479 0001460  95.0482 265.0686 15.30195053 80032
Epoch: 2025-12-06T13:32Z
TLE epoch observation values (Epoch: 2025-12-06T13:32:32.209Z)
Latitude
0.00004°
Longitude
116.62353°
Altitude
476.216 km
Speed
7.629 km/s
True Right ascension
02h 21m 23s
True Declination
0° 00' 00"
Sunlit
Object was in full shadow at epoch
Visualization orbit readout
Latitude
Unknown
Longitude
Unknown
Altitude
Unknown
Speed
Unknown
Apparent Right ascension
Unknown
Apparent Declination
Unknown
Sunlit
N/A
Visualization observer readout
Local Sidereal Time
00:56:34
Azimuth
Unknown
Elevation
Unknown
Doppler factor
Unknown
Orbital elements
Apogee altitude
476.487 km
Perigee altitude
474.485 km
Semi-major axis
6,853.623 km
Eccentricity
0.00015
Inclination
53.1615°
RAAN
35.3479°
Arg. of periapsis
95.0482°
True anomaly
265.05193°
Mean anomaly
265.0686°
Eccentric anomaly
265.06027°
Mean motion
3.82528 °/min
Orbital period
94.11 mins
BSTAR
0.000072648
Loading maneuver chart data...
Computing Atmospheric mass density...
Loading historical data...
Loading historical data...
Loading historical data...
Loading historical data...
Loading historical data...
Loading historical data...
Loading historical data...

Documentation

Showing up to 5 results
|